Volver al catálogo

KITA-36

ActivoSSO
NORAD 69909·PAYLOAD·🇵🇱 Poland

Lanzado Jul 7, 2026 desde Vandenberg Space Force Base

Loading…

Próximos Pases (próximas 24 horas)

TLE

ActualizadoSource: Space-Track

Época: Sep 14, 2026, 12:17 UTC

1 69909U 26156AS  26257.51241545  .00000734  00000-0  78873-4 0  9993
2 69909  97.7458 156.7766 0003888 275.8183  84.2592 14.91501237 10312

Sigue KITA-36 en tiempo real con AllMySat

Download on the App Store